Regional Weather Roundup
Issued by NWS Charleston, SC

Current Version | Previous Version | Graphics & Text | Print | Product List | Glossary On
Versions: 1 2 3 4 5 6 7 8 9 10 11 12 13 14 15 16 17 18 19 20 21 22 23 24 25 26 27 28 29 30 31 32 33 34 35 36 37 38 39 40 41 42 43 44 45 46 47 48 49 50
000
ASUS42 KCHS 120128
RWRCHS

REGIONAL WEATHER ROUNDUP
NATIONAL WEATHER SERVICE CHARLESTON SC
800 PM EST THU FEB 11 2016

NOTE: "FAIR" INDICATES FEW OR NO CLOUDS BELOW 12,000 FEET WITH NO
SIGNIFICANT WEATHER AND/OR OBSTRUCTIONS TO VISIBILITY.

NOT ALL STATIONS ARE QUALITY CONTROLLED BY THE NATIONAL
WEATHER SERVICE. USE DATA WITH CAUTION...ESPECIALLY
DEWPOINT OBSERVATIONS.

SCZ027-030-031-034>040-042>050-120200-
...SOUTHEAST SOUTH CAROLINA...

CITY           SKY/WX    TMP DP  RH WIND       PRES   REMARKS
N CHARLESTON   CLEAR     46  30  53 CALM      30.24R
WATERFRONT PRK   N/A     46  36  68 CALM      30.08R
MOUNT PLEASANT FAIR      37  34  87 CALM      30.25R
JOHNS ISLAND   FAIR      39  34  81 CALM      30.24S
PINOPOLIS        N/A     45  32  61 VRB3      30.14R
MONCKS CORNER  FAIR      36  28  75 CALM      30.24R
SUMMERVILLE    FAIR      45  32  61 CALM      30.25R
BEAUFORT MCAS  CLEAR     43  37  79 CALM      30.22R
BEAUFORT ARPT  FAIR      41  36  81 CALM      30.22S
HILTON HEAD IS CLEAR     48  43  81 MISG      30.22
WALTERBORO     CLEAR     45  34  65 CALM      30.24R
ALLENDALE      FAIR      45  32  61 CALM      30.21R

...SOUTHERN MIDLANDS AND PEE DEE...

CITY           SKY/WX    TMP DP  RH WIND       PRES   REMARKS
GEORGETOWN     FAIR      37  32  81 CALM      30.26S
KINGSTREE      FAIR      34  30  86 CALM      30.24R
ORANGEBURG     CLEAR     41  29  62 CALM      30.21R
BARNWELL       FAIR      41  32  70 CALM      30.21S
AIKEN          FAIR      36  28  75 CALM      30.22F
MANNING        FAIR      34  28  80 CALM      30.23S
COLUMBIA       CLEAR     43  28  55 CALM      30.21R
SUMTER         CLEAR     38  26  62 NE2       30.20R
FLORENCE       CLEAR     36  28  73 S5        30.24R WCI  32
MYRTLE BEACH   CLEAR     37  27  65 CALM      30.27R
N MYRTLE BEACH CLEAR     35  30  82 CALM      30.26R

$$

GAZ063-065-086>088-099>101-113>116-118-119-134>141-150-120200-
...SOUTHEAST GEORGIA...

CITY           SKY/WX    TMP DP  RH WIND       PRES   REMARKS
SAVANNAH ARPT  PTCLDY    47  38  71 E7        30.20R
HUNTER AAF     CLEAR     47  41  81 E3        30.17R
FORT STEWART   CLEAR     49  41  74 CALM      30.16R
STATESBORO     CLEAR     53  32  45 CALM      30.19R
SYLVANIA       CLEAR     47  38  69 E3        30.21R
CLAXTON        FAIR      52  42  68 N3        30.19R

...CSRA...CENTRAL AND FAR SOUTHEAST GEORGIA...

CITY           SKY/WX    TMP DP  RH WIND       PRES   REMARKS
THOMSON        CLEAR     41  34  75 CALM      30.23S
AUGUSTA-BUSH   CLEAR     40  30  67 S3        30.19R
AUGUSTA-DANIEL CLEAR     49  26  41 CALM      30.19R
SWAINSBORO     FAIR      50  34  53 NE3       30.19R
VIDALIA        CLEAR     52  36  54 NE6       30.17R
EASTMAN        MOCLDY    49  41  73 CALM      30.19R
HAZLEHURST     MOCLDY    55  45  68 S6        30.15R
ALMA           CLEAR     56  45  66 S6        30.17R
WAYCROSS       CLEAR     61  53  73 SW13      30.18S
JESUP          FAIR      54  45  71 CALM      30.18R
BAXLEY         FAIR      52  45  76 CALM      30.17R
BRUNSWICK      CLEAR     50  45  81 CALM      30.19R
SAINT SIMONS   CLEAR     53  50  89 S9        30.18R

$$

SCZ027-028-034-036>038-045-046-048>050-GAZ119-141-120200-
...LAKE AND SUPPLEMENTAL COASTAL OBSERVATIONS...

STATION/POSITION TIME  TEMP    WIND        PRES    WAVE   SWELL
                       AIR SEA DIR/SP/G            HT/PER HT/PER/DIR
                 (UTC) (F)     (DEG/KT/KT) (MB)    (FT/S) (FT/S/D)
WINYAH BAY       0000   43     210/  3     1022.0
LAKE MURRAY      0000   47      CALM  /  1 1022.0R
ACE BASIN NERRS  0045   40        CALM     1023.0R
FORT PULASKI     0100   51 50              1022.9R
SAPELO ISLAND    0100   52     170/  7     1022.0R

$$

ANZ835-935-AMZ111-154-330-350-352-354-370-450-454-472-120200-
...C-MAN AND BUOY OBSERVATIONS...

STATION/POSITION TIME  TEMP    WIND        PRES    WAVE   SWELL
                       AIR SEA DIR/SP/G            HT/PER HT/PER/DIR
                 (UTC) (F)     (DEG/KT/KT) (MB)    (FT/S) (FT/S/D)
BUOY 41004       0050   53 67  250/  6/  8 1023.9R   2/ 6   2/ 6
BUOY 41008       0050   56 53  200/ 12/ 16 1022.2R   3/ 4
FOLLY BEACH CMAN 0000   49     190/  8/  9 1023.3R
CAPERS NEARSHORE 0008   49     200/  8/ 10 1023.1R
FRIPP NEARSHORE  0000   51     150/  4/  6 1022.4R


STATION/POSITION TIME  TEMP    WIND        PRES    WAVE   SWELL
                       AIR SEA DIR/SP/G            HT/PER HT/PER/DIR
                 (UTC) (F)     (DEG/KT/KT) (MB)    (FT/S) (FT/S/D)
5E ST. MARYS GA  0021      56                N/A     3/ 4   2/100/13
FRYING PAN BUOY  0000   46 56  300/  6/ 10 1024.0R
BUOY 41025       0050   41 69  300/ 17/ 27 1024.6R   4/ 8   2/ 90/ 8
CAPE LOOKOUT NC  NOT AVBL
BUOY 41002       0050   55 68  300/ 16/ 21   N/A     8/ 8   5/280/ 8
BUOY 41010       0020   61 72              1025.3R
ST AUGUSTINE FL  0100   54 57  210/  7/  9 1024.5R


$$



USA.gov is the U.S. government's official web portal to all federal, state and local government web resources and services.